Tracking 31027 objects as of 19-Jul-2025
HD Live streaming from Space Station
objects crossing your sky now

COSMOS 2251 DEB

Track COSMOS 2251 DEB now!
10-day predictions


NORAD ID: 34129
Int'l Code: 1993-036LA
Perigee: 633.4 km
Apogee: 686.5 km
Inclination: 74.0 °
Period: 97.8 minutes
Semi major axis: 7030 km
RCS: 0.0571 m2 (small)
Launch date: June 16, 1993
Source: Commonwealth of Independent States (former USSR) (CIS)
Launch site: PLESETSK MISSILE AND SPACE COMPLEX (PKMTR)

Note: This is SATELLITE DEBRIS
Your satellite tracking list
STARLINK-1749
Track 1 satellite(s)




NASA's NSSDC Master Catalog

Two Line Element Set (TLE):
1 34129U 93036LA  25199.60519317  .00004368  00000-0  68342-3 0  9995
2 34129  74.0358 266.6220 0037739  26.8984 333.4133 14.72598194591306
Source of the keplerian elements: AFSPC